Location: Staunton
(38.1490°N, 79.0720°W)
Time: 05:10:01
(UTC-05:00)

ISS - Pass Details

Date: 20 January 2019
Orbit: 404 x 407 km, 51.6° (Epoch: 16 January)

Event Time Altitude Azimuth Distance (km) Brightness Sun altitude
Rises 19:41:24 0° 232° (SW) 2,311 0.9 -26.5°
Reaches altitude 10° 19:43:29 10° 234° (SW) 1,455 -0.3 -26.9°
Enters shadow 19:44:32 19° 235° (SW) 1,031 -1.2 -27.1°
